Time,TemperatureF,DewpointF,PressureIn,WindDirection,WindDirectionDegrees,WindSpeedMPH,WindSpeedGustMPH,Humidity,HourlyPrecipIn,Conditions,Clouds,dailyrainin,SolarRadiationWatts/m^2,SoftwareType,DateUTC
2013-01-17 00:00:00,29.7,27.9,30.59,West,276,5.0,10.0,93,0.00,,,0.00,0.0,meteohub,2013-01-17 08:00:00,
2013-01-17 00:05:00,29.3,27.3,30.59,West,278,3.0,10.0,92,0.00,,,0.00,0.0,meteohub,2013-01-17 08:05:00,
2013-01-17 00:10:00,28.6,26.6,30.59,West,278,3.0,10.0,92,0.00,,,0.00,0.0,meteohub,2013-01-17 08:10:00,
2013-01-17 00:15:00,28.2,26.2,30.59,WNW,289,3.0,7.0,92,0.00,,,0.00,0.0,meteohub,2013-01-17 08:15:00,
2013-01-17 00:20:00,27.9,25.9,30.59,WNW,290,3.0,5.0,92,0.00,,,0.00,0.0,meteohub,2013-01-17 08:20:00,
2013-01-17 00:25:00,27.7,25.9,30.59,WNW,289,2.0,5.0,93,0.00,,,0.00,0.0,meteohub,2013-01-17 08:25:00,
2013-01-17 00:30:00,27.5,25.7,30.59,WNW,288,4.0,5.0,93,0.00,,,0.00,0.0,meteohub,2013-01-17 08:30:00,
2013-01-17 00:35:00,27.3,25.5,30.59,WNW,290,3.0,5.0,93,0.00,,,0.00,0.0,meteohub,2013-01-17 08:35:00,
2013-01-17 00:40:00,27.1,25.3,30.59,WNW,303,2.0,4.0,93,0.00,,,0.00,0.0,meteohub,2013-01-17 08:40:00,
2013-01-17 00:45:00,27.3,25.9,30.59,WNW,297,3.0,6.0,94,0.00,,,0.00,0.0,meteohub,2013-01-17 08:45:00,
2013-01-17 00:50:00,27.1,25.7,30.59,WNW,286,4.0,6.0,94,0.00,,,0.00,0.0,meteohub,2013-01-17 08:50:00,
2013-01-17 00:55:00,27.1,25.7,30.59,WNW,294,2.0,6.0,94,0.00,,,0.00,0.0,meteohub,2013-01-17 08:55:00,
2013-01-17 01:00:00,27.1,25.9,30.59,NNE,26,0.0,6.0,95,0.00,,,0.00,0.0,meteohub,2013-01-17 09:00:00,
2013-01-17 01:05:00,28.0,26.8,30.59,NW,325,5.0,10.0,95,0.00,,,0.00,0.0,meteohub,2013-01-17 09:05:00,
2013-01-17 01:10:00,29.1,28.0,30.59,NW,323,2.0,10.0,96,0.00,,,0.00,0.0,meteohub,2013-01-17 09:10:00,
2013-01-17 01:15:00,28.4,26.6,30.59,WNW,296,3.0,10.0,93,0.00,,,0.00,0.0,meteohub,2013-01-17 09:15:00,
2013-01-17 01:21:00,27.9,26.1,30.59,WNW,292,2.0,10.0,93,0.00,,,0.00,0.0,meteohub,2013-01-17 09:21:00,
2013-01-17 01:26:00,27.3,25.5,30.59,WNW,292,3.0,6.0,93,0.00,,,0.00,0.0,meteohub,2013-01-17 09:26:00,
2013-01-17 01:31:00,27.1,25.3,30.59,WNW,292,0.0,5.0,93,0.00,,,0.00,0.0,meteohub,2013-01-17 09:31:00,
2013-01-17 01:36:00,27.7,26.2,30.59,WNW,298,0.0,6.0,94,0.00,,,0.00,0.0,meteohub,2013-01-17 09:36:00,
2013-01-17 01:41:00,27.7,26.2,30.59,SE,139,3.0,6.0,94,0.00,,,0.00,0.0,meteohub,2013-01-17 09:41:00,
2013-01-17 01:46:00,29.8,28.8,30.58,SW,236,1.0,11.0,96,0.00,,,0.00,0.0,meteohub,2013-01-17 09:46:00,
2013-01-17 01:51:00,32.5,30.9,30.58,ESE,109,6.0,16.0,94,0.00,,,0.00,0.0,meteohub,2013-01-17 09:51:00,
2013-01-17 01:56:00,33.8,30.4,30.59,SE,145,4.0,16.0,87,0.00,,,0.00,0.0,meteohub,2013-01-17 09:56:00,
2013-01-17 02:01:00,33.3,28.9,30.58,WNW,302,1.0,16.0,84,0.00,,,0.00,0.0,meteohub,2013-01-17 10:01:00,
2013-01-17 02:06:00,31.5,26.6,30.58,WNW,298,7.0,12.0,82,0.00,,,0.00,0.0,meteohub,2013-01-17 10:06:00,
2013-01-17 02:11:00,29.7,25.7,30.58,WNW,284,3.0,10.0,85,0.00,,,0.00,0.0,meteohub,2013-01-17 10:11:00,
2013-01-17 02:16:00,28.8,25.3,30.58,NNW,336,1.0,7.0,87,0.00,,,0.00,0.0,meteohub,2013-01-17 10:16:00,
2013-01-17 02:21:00,28.2,25.3,30.58,NW,321,2.0,7.0,89,0.00,,,0.00,0.0,meteohub,2013-01-17 10:21:00,
2013-01-17 02:26:00,27.9,25.3,30.58,NW,321,1.0,6.0,90,0.00,,,0.00,0.0,meteohub,2013-01-17 10:26:00,
2013-01-17 02:31:00,27.9,25.5,30.58,WNW,294,3.0,7.0,91,0.00,,,0.00,0.0,meteohub,2013-01-17 10:31:00,
2013-01-17 02:36:00,27.9,25.9,30.58,East,94,8.0,8.0,92,0.00,,,0.00,0.0,meteohub,2013-01-17 10:36:00,
2013-01-17 02:41:00,31.5,30.0,30.58,NE,45,1.0,12.0,94,0.00,,,0.00,0.0,meteohub,2013-01-17 10:41:00,
2013-01-17 02:46:00,30.7,27.3,30.58,WSW,257,0.0,13.0,87,0.00,,,0.00,0.0,meteohub,2013-01-17 10:46:00,
2013-01-17 02:51:00,29.8,26.8,30.58,NNW,329,1.0,13.0,88,0.00,,,0.00,0.0,meteohub,2013-01-17 10:51:00,
2013-01-17 02:56:00,31.3,29.3,30.58,NW,321,3.0,10.0,92,0.00,,,0.00,0.0,meteohub,2013-01-17 10:56:00,
2013-01-17 03:02:00,31.5,28.6,30.58,NNW,334,4.0,18.0,89,0.00,,,0.00,0.0,meteohub,2013-01-17 11:02:00,
2013-01-17 03:07:00,30.4,26.8,30.58,WNW,290,0.0,18.0,86,0.00,,,0.00,0.0,meteohub,2013-01-17 11:07:00,
2013-01-17 03:12:00,31.6,29.3,30.58,ESE,110,5.0,9.0,91,0.00,,,0.00,0.0,meteohub,2013-01-17 11:12:00,
2013-01-17 03:17:00,33.3,29.8,30.58,NE,55,2.0,15.0,87,0.00,,,0.00,0.0,meteohub,2013-01-17 11:17:00,
2013-01-17 03:22:00,32.4,27.9,30.57,WNW,285,3.0,15.0,83,0.00,,,0.00,0.0,meteohub,2013-01-17 11:22:00,
2013-01-17 03:27:00,30.9,27.0,30.57,NW,316,0.0,15.0,85,0.00,,,0.00,0.0,meteohub,2013-01-17 11:27:00,
2013-01-17 03:32:00,30.4,27.0,30.57,ESE,110,5.0,11.0,87,0.00,,,0.00,0.0,meteohub,2013-01-17 11:32:00,
2013-01-17 03:37:00,32.7,29.8,30.57,SE,144,12.0,14.0,89,0.00,,,0.00,0.0,meteohub,2013-01-17 11:37:00,
2013-01-17 03:42:00,33.1,28.2,30.57,SSW,202,1.0,14.0,82,0.00,,,0.00,0.0,meteohub,2013-01-17 11:42:00,
2013-01-17 03:47:00,32.2,28.4,30.56,ESE,103,6.0,14.0,86,0.00,,,0.00,0.0,meteohub,2013-01-17 11:47:00,
2013-01-17 03:52:00,33.6,29.8,30.56,East,90,7.0,14.0,86,0.00,,,0.00,0.0,meteohub,2013-01-17 11:52:00,
2013-01-17 03:57:00,34.7,30.0,30.56,ESE,123,14.0,15.0,83,0.00,,,0.00,0.0,meteohub,2013-01-17 11:57:00,
2013-01-17 04:02:00,34.5,29.7,30.56,ESE,112,14.0,16.0,82,0.00,,,0.00,0.0,meteohub,2013-01-17 12:02:00,
2013-01-17 04:07:00,35.1,30.2,30.55,ESE,107,9.0,16.0,82,0.00,,,0.00,0.0,meteohub,2013-01-17 12:07:00,
2013-01-17 04:12:00,35.1,29.8,30.55,ESE,123,6.0,20.0,81,0.00,,,0.00,0.0,meteohub,2013-01-17 12:12:00,
2013-01-17 04:17:00,35.2,30.0,30.55,East,82,6.0,20.0,81,0.00,,,0.00,0.0,meteohub,2013-01-17 12:17:00,
2013-01-17 04:22:00,35.1,29.8,30.55,SE,135,5.0,20.0,81,0.00,,,0.00,0.0,meteohub,2013-01-17 12:22:00,
2013-01-17 04:27:00,34.9,29.1,30.55,West,273,3.0,18.0,79,0.00,,,0.00,0.0,meteohub,2013-01-17 12:27:00,
2013-01-17 04:32:00,34.3,30.0,30.55,SSE,150,9.0,18.0,84,0.00,,,0.00,0.0,meteohub,2013-01-17 12:32:00,
2013-01-17 04:37:00,34.3,29.7,30.55,ESE,119,3.0,17.0,83,0.00,,,0.00,0.0,meteohub,2013-01-17 12:37:00,
2013-01-17 04:43:00,34.2,28.9,30.54,ESE,122,4.0,15.0,81,0.00,,,0.00,0.0,meteohub,2013-01-17 12:43:00,
2013-01-17 04:48:00,34.3,29.5,30.55,ENE,58,3.0,15.0,82,0.00,,,0.00,0.0,meteohub,2013-01-17 12:48:00,
2013-01-17 04:53:00,34.3,29.7,30.54,WNW,294,4.0,15.0,83,0.00,,,0.00,0.0,meteohub,2013-01-17 12:53:00,
2013-01-17 04:58:00,34.0,29.7,30.54,SE,141,6.0,15.0,84,0.00,,,0.00,0.0,meteohub,2013-01-17 12:58:00,
2013-01-17 05:03:00,34.2,29.8,30.53,SE,131,12.0,15.0,84,0.00,,,0.00,0.0,meteohub,2013-01-17 13:03:00,
2013-01-17 05:08:00,34.9,30.0,30.53,ESE,122,10.0,16.0,82,0.00,,,0.00,0.0,meteohub,2013-01-17 13:08:00,
2013-01-17 05:13:00,34.9,30.0,30.53,ESE,109,12.0,17.0,82,0.00,,,0.00,0.0,meteohub,2013-01-17 13:13:00,
2013-01-17 05:18:00,35.1,30.2,30.53,SE,138,4.0,17.0,82,0.00,,,0.00,0.0,meteohub,2013-01-17 13:18:00,
2013-01-17 05:23:00,35.2,30.4,30.53,SW,234,2.0,21.0,82,0.00,,,0.00,0.0,meteohub,2013-01-17 13:23:00,
2013-01-17 05:28:00,35.1,30.2,30.53,ESE,111,10.0,21.0,82,0.00,,,0.00,0.0,meteohub,2013-01-17 13:28:00,
2013-01-17 05:33:00,35.1,30.2,30.52,ESE,119,12.0,21.0,82,0.00,,,0.00,0.0,meteohub,2013-01-17 13:33:00,
2013-01-17 05:38:00,35.1,29.8,30.53,SE,126,9.0,23.0,81,0.00,,,0.00,0.0,meteohub,2013-01-17 13:38:00,
2013-01-17 05:43:00,35.1,29.8,30.53,East,80,6.0,23.0,81,0.00,,,0.00,0.0,meteohub,2013-01-17 13:43:00,
2013-01-17 05:48:00,34.2,28.9,30.52,SW,215,2.0,23.0,81,0.00,,,0.00,0.0,meteohub,2013-01-17 13:48:00,
2013-01-17 05:53:00,34.0,29.3,30.52,SE,126,1.0,19.0,83,0.00,,,0.00,0.0,meteohub,2013-01-17 13:53:00,
2013-01-17 05:58:00,33.4,28.8,30.52,NNW,331,4.0,12.0,83,0.00,,,0.00,0.0,meteohub,2013-01-17 13:58:00,
2013-01-17 06:03:00,33.4,29.5,30.51,ENE,59,11.0,12.0,85,0.00,,,0.00,0.0,meteohub,2013-01-17 14:03:00,
2013-01-17 06:08:00,34.3,29.7,30.51,ESE,117,7.0,17.0,83,0.00,,,0.00,0.0,meteohub,2013-01-17 14:08:00,
2013-01-17 06:13:00,34.7,29.8,30.51,ESE,116,19.0,19.0,82,0.00,,,0.00,0.0,meteohub,2013-01-17 14:13:00,
2013-01-17 06:18:00,35.1,30.2,30.51,ESE,110,9.0,20.0,82,0.00,,,0.00,0.0,meteohub,2013-01-17 14:18:00,
2013-01-17 06:23:00,35.2,30.4,30.51,ESE,120,2.0,20.0,82,0.00,,,0.00,0.0,meteohub,2013-01-17 14:23:00,
2013-01-17 06:28:00,34.9,29.7,30.51,NE,40,3.0,20.0,81,0.00,,,0.00,0.0,meteohub,2013-01-17 14:28:00,
2013-01-17 06:33:00,34.7,29.8,30.51,SE,124,5.0,18.0,82,0.00,,,0.00,0.0,meteohub,2013-01-17 14:33:00,
2013-01-17 06:39:00,34.7,29.8,30.51,ESE,105,6.0,19.0,82,0.00,,,0.00,0.0,meteohub,2013-01-17 14:39:00,
2013-01-17 06:44:00,34.5,29.7,30.51,East,86,11.0,19.0,82,0.00,,,0.00,0.0,meteohub,2013-01-17 14:44:00,
2013-01-17 06:49:00,35.2,30.0,30.51,SSE,159,10.0,19.0,81,0.00,,,0.00,0.0,meteohub,2013-01-17 14:49:00,
2013-01-17 06:54:00,35.1,30.2,30.51,ESE,109,4.0,21.0,82,0.00,,,0.00,0.0,meteohub,2013-01-17 14:54:00,
2013-01-17 06:59:00,35.1,29.8,30.51,ESE,107,4.0,21.0,81,0.00,,,0.00,0.0,meteohub,2013-01-17 14:59:00,
2013-01-17 07:04:00,34.7,29.5,30.51,East,89,4.0,21.0,81,0.00,,,0.00,0.0,meteohub,2013-01-17 15:04:00,
2013-01-17 07:09:00,34.3,28.8,30.51,WNW,284,4.0,16.0,80,0.00,,,0.00,0.0,meteohub,2013-01-17 15:09:00,
2013-01-17 07:14:00,32.5,26.8,30.51,NW,307,4.0,13.0,79,0.00,,,0.00,0.0,meteohub,2013-01-17 15:14:00,
2013-01-17 07:19:00,30.9,26.1,30.51,SSE,163,3.0,13.0,82,0.00,,,0.00,0.0,meteohub,2013-01-17 15:19:00,
2013-01-17 07:24:00,30.0,26.1,30.51,West,263,2.0,11.0,85,0.00,,,0.00,0.0,meteohub,2013-01-17 15:24:00,
2013-01-17 07:29:00,31.5,28.6,30.51,SW,221,1.0,10.0,89,0.00,,,0.00,0.0,meteohub,2013-01-17 15:29:00,
2013-01-17 07:34:00,30.6,26.6,30.51,WNW,297,3.0,11.0,85,0.00,,,0.00,0.0,meteohub,2013-01-17 15:34:00,
2013-01-17 07:39:00,29.5,26.1,30.52,WNW,289,2.0,11.0,87,0.00,,,0.00,5.0,meteohub,2013-01-17 15:39:00,
2013-01-17 07:44:00,30.6,28.2,30.52,ESE,121,11.0,11.0,91,0.00,,,0.00,7.0,meteohub,2013-01-17 15:44:00,
2013-01-17 07:49:00,32.7,28.9,30.52,East,99,3.0,9.0,86,0.00,,,0.00,7.0,meteohub,2013-01-17 15:49:00,
2013-01-17 07:54:00,33.4,29.5,30.52,ESE,106,6.0,14.0,85,0.00,,,0.00,7.0,meteohub,2013-01-17 15:54:00,
2013-01-17 07:59:00,34.2,29.5,30.52,East,94,12.0,14.0,83,0.00,,,0.00,9.0,meteohub,2013-01-17 15:59:00,
2013-01-17 08:04:00,34.7,29.8,30.52,ESE,117,4.0,14.0,82,0.00,,,0.00,12.0,meteohub,2013-01-17 16:04:00,
2013-01-17 08:09:00,34.3,28.8,30.53,SE,128,6.0,18.0,80,0.00,,,0.00,16.0,meteohub,2013-01-17 16:09:00,
2013-01-17 08:14:00,33.8,28.9,30.52,East,86,1.0,18.0,82,0.00,,,0.00,21.0,meteohub,2013-01-17 16:14:00,
2013-01-17 08:19:00,34.3,29.7,30.53,SSE,153,3.0,18.0,83,0.00,,,0.00,25.0,meteohub,2013-01-17 16:19:00,
2013-01-17 08:24:00,35.1,29.8,30.52,SE,126,13.0,16.0,81,0.00,,,0.00,30.0,meteohub,2013-01-17 16:24:00,
2013-01-17 08:29:00,35.1,29.8,30.52,SE,127,12.0,21.0,81,0.00,,,0.00,37.0,meteohub,2013-01-17 16:29:00,
2013-01-17 08:34:00,35.1,29.8,30.52,ESE,120,6.0,21.0,81,0.00,,,0.00,46.0,meteohub,2013-01-17 16:34:00,
2013-01-17 08:39:00,35.2,30.0,30.53,SE,134,5.0,21.0,81,0.00,,,0.00,51.0,meteohub,2013-01-17 16:39:00,
2013-01-17 08:45:00,35.4,29.8,30.52,SE,128,11.0,21.0,80,0.00,,,0.00,54.0,meteohub,2013-01-17 16:45:00,
2013-01-17 08:50:00,35.4,29.8,30.53,SE,124,1.0,18.0,80,0.00,,,0.00,54.0,meteohub,2013-01-17 16:50:00,
2013-01-17 08:55:00,35.6,30.0,30.53,SE,126,7.0,19.0,80,0.00,,,0.00,60.0,meteohub,2013-01-17 16:55:00,
2013-01-17 09:00:00,35.4,30.2,30.53,SE,124,1.0,22.0,81,0.00,,,0.00,67.0,meteohub,2013-01-17 17:00:00,
2013-01-17 09:05:00,34.9,29.1,30.53,North,355,4.0,22.0,79,0.00,,,0.00,74.0,meteohub,2013-01-17 17:05:00,
2013-01-17 09:10:00,34.7,30.0,30.53,SE,140,12.0,22.0,83,0.00,,,0.00,77.0,meteohub,2013-01-17 17:10:00,
2013-01-17 09:15:00,35.4,30.2,30.53,ENE,65,3.0,17.0,81,0.00,,,0.00,81.0,meteohub,2013-01-17 17:15:00,
2013-01-17 09:20:00,34.2,29.3,30.53,East,101,4.0,17.0,82,0.00,,,0.00,84.0,meteohub,2013-01-17 17:20:00,
2013-01-17 09:25:00,33.8,29.1,30.53,NNE,12,3.0,17.0,83,0.00,,,0.00,86.0,meteohub,2013-01-17 17:25:00,
2013-01-17 09:30:00,34.2,29.5,30.53,NW,317,2.0,15.0,83,0.00,,,0.00,83.0,meteohub,2013-01-17 17:30:00,
2013-01-17 09:35:00,34.5,29.8,30.53,East,98,3.0,15.0,83,0.00,,,0.00,83.0,meteohub,2013-01-17 17:35:00,
2013-01-17 09:40:00,34.3,29.7,30.52,East,86,5.0,13.0,83,0.00,,,0.00,88.0,meteohub,2013-01-17 17:40:00,
2013-01-17 09:45:00,34.3,30.0,30.52,ESE,104,10.0,13.0,84,0.00,,,0.00,91.0,meteohub,2013-01-17 17:45:00,
2013-01-17 09:50:00,35.4,30.6,30.52,East,90,11.0,13.0,82,0.00,,,0.00,91.0,meteohub,2013-01-17 17:50:00,
2013-01-17 09:55:00,36.1,30.6,30.51,ESE,103,10.0,16.0,80,0.00,,,0.00,88.0,meteohub,2013-01-17 17:55:00,
2013-01-17 10:00:00,36.5,30.9,30.51,SSE,157,5.0,16.0,80,0.00,,,0.00,88.0,meteohub,2013-01-17 18:00:00,
2013-01-17 10:05:00,36.5,30.9,30.51,SE,132,5.0,16.0,80,0.00,,,0.00,91.0,meteohub,2013-01-17 18:05:00,
2013-01-17 10:10:00,36.9,30.9,30.52,ENE,61,2.0,16.0,79,0.00,,,0.00,95.0,meteohub,2013-01-17 18:10:00,
2013-01-17 10:15:00,36.9,30.6,30.52,ESE,103,4.0,15.0,78,0.00,,,0.00,100.0,meteohub,2013-01-17 18:15:00,
2013-01-17 10:20:00,36.7,30.7,30.51,East,94,4.0,15.0,79,0.00,,,0.00,104.0,meteohub,2013-01-17 18:20:00,
2013-01-17 10:25:00,36.9,30.9,30.51,SE,126,5.0,14.0,79,0.00,,,0.00,104.0,meteohub,2013-01-17 18:25:00,
2013-01-17 10:30:00,36.9,30.9,30.51,SSE,155,2.0,13.0,79,0.00,,,0.00,105.0,meteohub,2013-01-17 18:30:00,
2013-01-17 10:35:00,35.6,30.9,30.50,West,265,1.0,13.0,83,0.00,,,0.00,107.0,meteohub,2013-01-17 18:35:00,
2013-01-17 10:41:00,35.6,30.7,30.50,NE,56,2.0,7.0,82,0.00,,,0.00,105.0,meteohub,2013-01-17 18:41:00,
2013-01-17 10:46:00,36.1,30.9,30.50,ESE,117,4.0,10.0,81,0.00,,,0.00,105.0,meteohub,2013-01-17 18:46:00,
2013-01-17 10:51:00,36.1,31.1,30.49,East,84,2.0,10.0,82,0.00,,,0.00,107.0,meteohub,2013-01-17 18:51:00,
2013-01-17 10:56:00,36.9,31.3,30.49,East,86,12.0,12.0,80,0.00,,,0.00,107.0,meteohub,2013-01-17 18:56:00,
2013-01-17 11:01:00,37.0,31.1,30.48,East,101,5.0,14.0,79,0.00,,,0.00,151.0,meteohub,2013-01-17 19:01:00,
2013-01-17 11:06:00,37.6,31.3,30.48,ESE,115,9.0,14.0,78,0.00,,,0.00,244.0,meteohub,2013-01-17 19:06:00,
2013-01-17 11:11:00,37.6,31.6,30.48,ESE,121,3.0,14.0,79,0.00,,,0.00,234.0,meteohub,2013-01-17 19:11:00,
2013-01-17 11:16:00,37.6,31.6,30.48,ENE,69,3.0,13.0,79,0.00,,,0.00,267.0,meteohub,2013-01-17 19:16:00,
2013-01-17 11:21:00,37.6,31.6,30.48,NE,55,3.0,10.0,79,0.00,,,0.00,288.0,meteohub,2013-01-17 19:21:00,
2013-01-17 11:26:00,37.9,31.6,30.47,WNW,303,2.0,9.0,78,0.00,,,0.00,292.0,meteohub,2013-01-17 19:26:00,
2013-01-17 11:31:00,37.9,31.6,30.47,East,83,6.0,10.0,78,0.00,,,0.00,288.0,meteohub,2013-01-17 19:31:00,
2013-01-17 11:36:00,37.9,31.6,30.47,ENE,68,2.0,13.0,78,0.00,,,0.00,297.0,meteohub,2013-01-17 19:36:00,
2013-01-17 11:41:00,38.3,32.0,30.46,NW,312,2.0,13.0,78,0.00,,,0.00,311.0,meteohub,2013-01-17 19:41:00,
2013-01-17 11:46:00,38.7,32.0,30.46,ENE,76,5.0,14.0,77,0.00,,,0.00,323.0,meteohub,2013-01-17 19:46:00,
2013-01-17 11:51:00,38.8,32.2,30.45,East,82,4.0,14.0,77,0.00,,,0.00,350.0,meteohub,2013-01-17 19:51:00,
2013-01-17 11:56:00,39.4,32.7,30.45,ENE,72,1.0,14.0,77,0.00,,,0.00,360.0,meteohub,2013-01-17 19:56:00,
2013-01-17 12:01:00,39.6,32.9,30.45,NW,304,2.0,11.0,77,0.00,,,0.00,371.0,meteohub,2013-01-17 20:01:00,
2013-01-17 12:06:00,39.4,33.8,30.45,ESE,109,4.0,11.0,80,0.00,,,0.00,295.0,meteohub,2013-01-17 20:06:00,
2013-01-17 12:11:00,39.6,32.5,30.44,ENE,75,12.0,12.0,76,0.00,,,0.00,125.0,meteohub,2013-01-17 20:11:00,
2013-01-17 12:16:00,39.7,32.7,30.43,WNW,288,2.0,15.0,76,0.00,,,0.00,114.0,meteohub,2013-01-17 20:16:00,
2013-01-17 12:21:00,39.6,32.9,30.43,ENE,78,4.0,15.0,77,0.00,,,0.00,105.0,meteohub,2013-01-17 20:21:00,
2013-01-17 12:26:00,40.5,33.1,30.44,ENE,62,2.0,15.0,75,0.00,,,0.00,95.0,meteohub,2013-01-17 20:26:00,
2013-01-17 12:31:00,40.3,33.3,30.43,East,84,0.0,13.0,76,0.00,,,0.00,90.0,meteohub,2013-01-17 20:31:00,
2013-01-17 12:37:00,39.7,33.1,30.43,ENE,60,0.0,13.0,77,0.00,,,0.00,86.0,meteohub,2013-01-17 20:37:00,
2013-01-17 12:42:00,38.8,33.4,30.43,NNW,348,0.0,7.0,81,0.00,,,0.00,86.0,meteohub,2013-01-17 20:42:00,
2013-01-17 12:47:00,38.8,33.8,30.42,SE,144,0.0,7.0,82,0.00,,,0.00,91.0,meteohub,2013-01-17 20:47:00,
2013-01-17 12:52:00,39.9,33.6,30.42,East,84,4.0,4.0,78,0.00,,,0.00,93.0,meteohub,2013-01-17 20:52:00,
2013-01-17 12:57:00,41.2,33.8,30.42,SE,125,3.0,13.0,75,0.00,,,0.00,90.0,meteohub,2013-01-17 20:57:00,
2013-01-17 13:02:00,41.2,33.8,30.42,East,82,9.0,15.0,75,0.00,,,0.00,86.0,meteohub,2013-01-17 21:02:00,
2013-01-17 13:07:00,41.2,33.8,30.42,East,81,4.0,15.0,75,0.00,,,0.00,90.0,meteohub,2013-01-17 21:07:00,
2013-01-17 13:12:00,42.3,34.5,30.41,East,98,13.0,13.0,74,0.00,,,0.00,105.0,meteohub,2013-01-17 21:12:00,
2013-01-17 13:17:00,42.6,34.2,30.41,ESE,110,11.0,17.0,72,0.00,,,0.00,114.0,meteohub,2013-01-17 21:17:00,
2013-01-17 13:22:00,43.0,34.5,30.40,ESE,104,18.0,18.0,72,0.00,,,0.00,105.0,meteohub,2013-01-17 21:22:00,
2013-01-17 13:27:00,42.8,34.7,30.40,ESE,104,12.0,19.0,73,0.00,,,0.00,325.0,meteohub,2013-01-17 21:27:00,
2013-01-17 13:32:00,42.4,34.7,30.40,NE,39,5.0,19.0,74,0.00,,,0.00,332.0,meteohub,2013-01-17 21:32:00,
2013-01-17 13:37:00,42.3,34.5,30.39,SE,145,5.0,19.0,74,0.00,,,0.00,290.0,meteohub,2013-01-17 21:37:00,
2013-01-17 13:42:00,42.8,34.7,30.39,NE,56,0.0,17.0,73,0.00,,,0.00,146.0,meteohub,2013-01-17 21:42:00,
2013-01-17 13:47:00,42.3,34.9,30.39,NE,46,0.0,14.0,75,0.00,,,0.00,156.0,meteohub,2013-01-17 21:47:00,
2013-01-17 13:52:00,40.8,34.9,30.39,NE,46,0.0,11.0,79,0.00,,,0.00,98.0,meteohub,2013-01-17 21:52:00,
2013-01-17 13:57:00,40.5,34.5,30.38,ENE,58,0.0,3.0,79,0.00,,,0.00,91.0,meteohub,2013-01-17 21:57:00,
2013-01-17 14:02:00,40.3,34.3,30.38,NE,55,0.0,2.0,79,0.00,,,0.00,98.0,meteohub,2013-01-17 22:02:00,
2013-01-17 14:07:00,40.1,34.5,30.38,WNW,285,3.0,3.0,80,0.00,,,0.00,104.0,meteohub,2013-01-17 22:07:00,
2013-01-17 14:12:00,38.7,34.5,30.38,WNW,285,0.0,4.0,85,0.00,,,0.00,155.0,meteohub,2013-01-17 22:12:00,
2013-01-17 14:17:00,39.6,34.5,30.38,West,281,2.0,4.0,82,0.00,,,0.00,91.0,meteohub,2013-01-17 22:17:00,
2013-01-17 14:22:00,39.6,34.5,30.38,West,281,0.0,4.0,82,0.00,,,0.00,153.0,meteohub,2013-01-17 22:22:00,
2013-01-17 14:27:00,40.1,34.7,30.37,NW,316,1.0,4.0,81,0.00,,,0.00,267.0,meteohub,2013-01-17 22:27:00,
2013-01-17 14:32:00,40.8,34.9,30.37,NW,314,1.0,4.0,79,0.00,,,0.00,258.0,meteohub,2013-01-17 22:32:00,
2013-01-17 14:37:00,40.8,34.9,30.37,SE,133,0.0,4.0,79,0.00,,,0.00,237.0,meteohub,2013-01-17 22:37:00,
2013-01-17 14:42:00,40.8,34.9,30.37,West,263,1.0,4.0,79,0.00,,,0.00,209.0,meteohub,2013-01-17 22:42:00,
2013-01-17 14:47:00,40.8,34.9,30.37,West,276,0.0,4.0,79,0.00,,,0.00,209.0,meteohub,2013-01-17 22:47:00,
2013-01-17 14:52:00,41.4,35.1,30.37,SE,128,1.0,6.0,78,0.00,,,0.00,202.0,meteohub,2013-01-17 22:52:00,
2013-01-17 14:57:00,41.4,35.1,30.37,East,82,3.0,6.0,78,0.00,,,0.00,227.0,meteohub,2013-01-17 22:57:00,
2013-01-17 15:02:00,41.2,35.2,30.37,ENE,77,2.0,6.0,79,0.00,,,0.00,230.0,meteohub,2013-01-17 23:02:00,
2013-01-17 15:07:00,40.8,35.1,30.37,ENE,67,0.0,5.0,80,0.00,,,0.00,221.0,meteohub,2013-01-17 23:07:00,
2013-01-17 15:12:00,41.5,35.2,30.37,NE,55,0.0,5.0,78,0.00,,,0.00,179.0,meteohub,2013-01-17 23:12:00,
2013-01-17 15:17:00,41.4,35.1,30.37,ESE,106,3.0,5.0,78,0.00,,,0.00,195.0,meteohub,2013-01-17 23:17:00,
2013-01-17 15:22:00,41.2,35.2,30.37,East,82,0.0,4.0,79,0.00,,,0.00,181.0,meteohub,2013-01-17 23:22:00,
2013-01-17 15:27:00,40.8,34.9,30.37,East,91,1.0,5.0,79,0.00,,,0.00,174.0,meteohub,2013-01-17 23:27:00,
2013-01-17 15:32:00,41.2,35.2,30.37,East,93,0.0,5.0,79,0.00,,,0.00,179.0,meteohub,2013-01-17 23:32:00,
2013-01-17 15:37:00,40.3,34.5,30.37,SSW,212,1.0,5.0,80,0.00,,,0.00,153.0,meteohub,2013-01-17 23:37:00,
2013-01-17 15:42:00,40.5,34.7,30.37,NNW,344,2.0,4.0,80,0.00,,,0.00,149.0,meteohub,2013-01-17 23:42:00,
2013-01-17 15:47:00,39.6,35.1,30.37,WSW,243,0.0,10.0,84,0.00,,,0.00,113.0,meteohub,2013-01-17 23:47:00,
2013-01-17 15:52:00,38.8,34.7,30.37,South,175,1.0,10.0,85,0.00,,,0.00,83.0,meteohub,2013-01-17 23:52:00,
2013-01-17 15:57:00,38.8,34.7,30.37,WNW,294,1.0,5.0,85,0.00,,,0.00,60.0,meteohub,2013-01-17 23:57:00,
2013-01-17 16:02:00,37.9,34.2,30.37,WNW,294,0.0,3.0,86,0.00,,,0.00,49.0,meteohub,2013-01-18 00:02:00,
2013-01-17 16:07:00,37.8,34.0,30.37,WNW,293,1.0,5.0,86,0.00,,,0.00,44.0,meteohub,2013-01-18 00:07:00,
2013-01-17 16:12:00,37.6,34.3,30.37,WNW,293,1.0,5.0,88,0.00,,,0.00,37.0,meteohub,2013-01-18 00:12:00,
2013-01-17 16:17:00,37.2,33.8,30.38,WNW,292,0.0,5.0,87,0.00,,,0.00,28.0,meteohub,2013-01-18 00:17:00,
2013-01-17 16:22:00,36.9,34.0,30.38,WNW,292,1.0,4.0,89,0.00,,,0.00,23.0,meteohub,2013-01-18 00:22:00,
2013-01-17 16:27:00,36.3,33.6,30.38,WNW,292,2.0,3.0,90,0.00,,,0.00,19.0,meteohub,2013-01-18 00:27:00,
2013-01-17 16:32:00,36.1,33.8,30.38,WNW,292,0.0,3.0,91,0.00,,,0.00,16.0,meteohub,2013-01-18 00:32:00,
2013-01-17 16:37:00,36.9,34.2,30.38,WNW,292,0.0,3.0,90,0.00,,,0.00,12.0,meteohub,2013-01-18 00:37:00,
2013-01-17 16:42:00,36.9,34.0,30.38,WNW,292,0.0,3.0,89,0.00,,,0.00,5.0,meteohub,2013-01-18 00:42:00,
2013-01-17 16:47:00,36.5,33.6,30.38,WNW,292,2.0,2.0,89,0.00,,,0.00,0.0,meteohub,2013-01-18 00:47:00,
2013-01-17 16:52:00,36.1,33.3,30.38,WNW,292,2.0,3.0,89,0.00,,,0.00,0.0,meteohub,2013-01-18 00:52:00,
2013-01-17 16:57:00,35.8,33.1,30.38,WNW,292,2.0,3.0,90,0.00,,,0.00,0.0,meteohub,2013-01-18 00:57:00,
2013-01-17 17:02:00,35.2,32.5,30.38,WNW,291,4.0,4.0,90,0.00,,,0.00,0.0,meteohub,2013-01-18 01:02:00,
2013-01-17 17:07:00,35.1,32.7,30.38,WNW,290,1.0,5.0,91,0.00,,,0.00,0.0,meteohub,2013-01-18 01:07:00,
2013-01-17 17:12:00,34.9,32.7,30.38,WNW,290,1.0,5.0,92,0.00,,,0.00,0.0,meteohub,2013-01-18 01:12:00,
2013-01-17 17:17:00,34.9,32.7,30.38,WNW,290,1.0,5.0,92,0.00,,,0.00,0.0,meteohub,2013-01-18 01:17:00,
2013-01-17 17:22:00,34.7,32.5,30.38,WNW,290,3.0,3.0,92,0.00,,,0.00,0.0,meteohub,2013-01-18 01:22:00,
2013-01-17 17:27:00,34.3,32.2,30.38,WNW,290,1.0,3.0,92,0.00,,,0.00,0.0,meteohub,2013-01-18 01:27:00,
2013-01-17 17:32:00,34.2,32.0,30.38,WNW,289,2.0,3.0,92,0.00,,,0.00,0.0,meteohub,2013-01-18 01:32:00,
2013-01-17 17:38:00,33.8,31.6,30.38,WNW,289,1.0,4.0,92,0.00,,,0.00,0.0,meteohub,2013-01-18 01:38:00,
2013-01-17 17:43:00,33.4,31.6,30.38,WNW,289,2.0,4.0,93,0.00,,,0.00,0.0,meteohub,2013-01-18 01:43:00,
2013-01-17 17:48:00,33.3,31.5,30.38,WNW,289,3.0,4.0,93,0.00,,,0.00,0.0,meteohub,2013-01-18 01:48:00,
2013-01-17 17:53:00,33.1,31.3,30.39,WNW,289,0.0,4.0,93,0.00,,,0.00,0.0,meteohub,2013-01-18 01:53:00,
2013-01-17 17:58:00,32.7,30.9,30.38,WNW,289,0.0,4.0,93,0.00,,,0.00,0.0,meteohub,2013-01-18 01:58:00,
2013-01-17 18:03:00,32.5,30.7,30.38,WNW,289,0.0,4.0,93,0.00,,,0.00,0.0,meteohub,2013-01-18 02:03:00,
2013-01-17 18:08:00,32.2,30.4,30.39,WNW,289,2.0,4.0,93,0.00,,,0.00,0.0,meteohub,2013-01-18 02:08:00,
2013-01-17 18:13:00,31.8,30.0,30.38,WNW,289,3.0,3.0,93,0.00,,,0.00,0.0,meteohub,2013-01-18 02:13:00,
2013-01-17 18:18:00,31.8,30.4,30.39,WNW,289,1.0,4.0,94,0.00,,,0.00,0.0,meteohub,2013-01-18 02:18:00,
2013-01-17 18:23:00,31.6,30.2,30.39,WNW,289,2.0,4.0,94,0.00,,,0.00,0.0,meteohub,2013-01-18 02:23:00,
2013-01-17 18:28:00,31.3,29.8,30.39,WNW,289,2.0,4.0,94,0.00,,,0.00,0.0,meteohub,2013-01-18 02:28:00,
2013-01-17 18:33:00,31.3,29.8,30.38,WNW,289,3.0,5.0,94,0.00,,,0.00,0.0,meteohub,2013-01-18 02:33:00,
2013-01-17 18:38:00,31.3,30.0,30.38,WNW,290,0.0,5.0,95,0.00,,,0.00,0.0,meteohub,2013-01-18 02:38:00,
2013-01-17 18:43:00,30.9,29.7,30.38,WNW,290,3.0,6.0,95,0.00,,,0.00,0.0,meteohub,2013-01-18 02:43:00,
2013-01-17 18:48:00,30.9,29.7,30.38,WNW,290,2.0,6.0,95,0.00,,,0.00,0.0,meteohub,2013-01-18 02:48:00,
2013-01-17 18:53:00,30.9,29.7,30.38,WNW,290,3.0,5.0,95,0.00,,,0.00,0.0,meteohub,2013-01-18 02:53:00,
2013-01-17 18:58:00,30.7,29.5,30.38,WNW,290,2.0,4.0,95,0.00,,,0.00,0.0,meteohub,2013-01-18 02:58:00,
2013-01-17 19:03:00,30.7,29.5,30.39,WNW,290,3.0,4.0,95,0.00,,,0.00,0.0,meteohub,2013-01-18 03:03:00,
2013-01-17 19:08:00,30.6,29.3,30.39,WNW,290,1.0,4.0,95,0.00,,,0.00,0.0,meteohub,2013-01-18 03:08:00,
2013-01-17 19:13:00,30.6,29.5,30.39,WNW,290,1.0,4.0,96,0.00,,,0.00,0.0,meteohub,2013-01-18 03:13:00,
2013-01-17 19:18:00,30.6,29.5,30.39,WNW,290,2.0,4.0,96,0.00,,,0.00,0.0,meteohub,2013-01-18 03:18:00,
2013-01-17 19:23:00,30.6,29.5,30.39,WNW,290,3.0,4.0,96,0.00,,,0.00,0.0,meteohub,2013-01-18 03:23:00,
2013-01-17 19:28:00,30.4,29.3,30.39,WNW,290,2.0,4.0,96,0.00,,,0.00,0.0,meteohub,2013-01-18 03:28:00,
2013-01-17 19:33:00,30.4,29.3,30.39,WNW,290,1.0,4.0,96,0.00,,,0.00,0.0,meteohub,2013-01-18 03:33:00,
2013-01-17 19:38:00,30.4,29.3,30.38,WNW,290,1.0,4.0,96,0.00,,,0.00,0.0,meteohub,2013-01-18 03:38:00,
2013-01-17 19:43:00,30.0,28.9,30.38,WNW,290,3.0,4.0,96,0.00,,,0.00,0.0,meteohub,2013-01-18 03:43:00,
2013-01-17 19:48:00,30.0,28.9,30.38,WNW,285,1.0,3.0,96,0.00,,,0.00,0.0,meteohub,2013-01-18 03:48:00,
2013-01-17 19:54:00,30.0,28.9,30.38,WNW,285,2.0,4.0,96,0.00,,,0.00,0.0,meteohub,2013-01-18 03:54:00,
2013-01-17 19:59:00,30.0,28.9,30.38,WNW,285,1.0,4.0,96,0.00,,,0.00,0.0,meteohub,2013-01-18 03:59:00,
2013-01-17 20:04:00,30.0,28.9,30.38,WNW,285,3.0,4.0,96,0.00,,,0.00,0.0,meteohub,2013-01-18 04:04:00,
2013-01-17 20:09:00,29.8,28.8,30.38,WNW,285,4.0,4.0,96,0.00,,,0.00,0.0,meteohub,2013-01-18 04:09:00,
2013-01-17 20:14:00,29.8,29.1,30.38,WNW,285,3.0,4.0,97,0.00,,,0.00,0.0,meteohub,2013-01-18 04:14:00,
2013-01-17 20:19:00,29.8,29.1,30.38,WNW,285,1.0,4.0,97,0.00,,,0.00,0.0,meteohub,2013-01-18 04:19:00,
2013-01-17 20:24:00,29.8,29.1,30.38,WNW,288,3.0,4.0,97,0.00,,,0.00,0.0,meteohub,2013-01-18 04:24:00,
2013-01-17 20:29:00,29.7,28.9,30.38,WNW,286,1.0,4.0,97,0.00,,,0.00,0.0,meteohub,2013-01-18 04:29:00,
2013-01-17 20:34:00,29.7,28.9,30.38,WNW,286,1.0,4.0,97,0.00,,,0.00,0.0,meteohub,2013-01-18 04:34:00,
2013-01-17 20:39:00,29.7,28.9,30.38,WNW,286,2.0,5.0,97,0.00,,,0.00,0.0,meteohub,2013-01-18 04:39:00,
2013-01-17 20:44:00,29.8,29.1,30.38,WNW,286,3.0,5.0,97,0.00,,,0.00,0.0,meteohub,2013-01-18 04:44:00,
2013-01-17 20:49:00,29.7,28.9,30.38,WNW,286,0.0,5.0,97,0.00,,,0.00,0.0,meteohub,2013-01-18 04:49:00,
2013-01-17 20:54:00,29.7,28.9,30.38,WNW,286,3.0,5.0,97,0.00,,,0.00,0.0,meteohub,2013-01-18 04:54:00,
2013-01-17 20:59:00,29.5,28.8,30.38,WNW,286,1.0,3.0,97,0.00,,,0.00,0.0,meteohub,2013-01-18 04:59:00,
2013-01-17 21:00:00,29.5,28.8,30.38,WNW,286,2.0,3.0,97,0.00,,,0.00,0.0,meteohub,2013-01-18 05:00:00,
2013-01-17 21:01:00,29.5,28.8,30.38,WNW,286,3.0,4.0,97,0.00,,,0.00,0.0,meteohub,2013-01-18 05:01:00,
2013-01-17 21:03:00,29.5,28.8,30.38,WNW,286,4.0,4.0,97,0.00,,,0.00,0.0,meteohub,2013-01-18 05:03:00,
2013-01-17 21:07:00,29.5,28.8,30.38,WNW,286,1.0,4.0,97,0.00,,,0.00,0.0,meteohub,2013-01-18 05:07:00,
2013-01-17 21:12:00,29.5,28.8,30.38,WNW,286,0.0,4.0,97,0.00,,,0.00,0.0,meteohub,2013-01-18 05:12:00,
2013-01-17 21:17:00,29.5,28.8,30.38,WNW,286,2.0,4.0,97,0.00,,,0.00,0.0,meteohub,2013-01-18 05:17:00,
2013-01-17 21:22:00,29.5,28.8,30.38,WNW,286,2.0,3.0,97,0.00,,,0.00,0.0,meteohub,2013-01-18 05:22:00,
2013-01-17 21:27:00,29.3,28.6,30.38,WNW,286,3.0,4.0,97,0.00,,,0.00,0.0,meteohub,2013-01-18 05:27:00,
2013-01-17 21:32:00,29.3,28.6,30.38,WNW,286,2.0,4.0,97,0.00,,,0.00,0.0,meteohub,2013-01-18 05:32:00,
2013-01-17 21:37:00,29.3,28.6,30.38,WNW,286,0.0,4.0,97,0.00,,,0.00,0.0,meteohub,2013-01-18 05:37:00,
2013-01-17 21:42:00,29.3,28.6,30.38,WNW,286,2.0,4.0,97,0.00,,,0.00,0.0,meteohub,2013-01-18 05:42:00,
2013-01-17 21:47:00,29.3,28.6,30.38,WNW,286,1.0,4.0,97,0.00,,,0.00,0.0,meteohub,2013-01-18 05:47:00,
2013-01-17 21:52:00,29.3,28.6,30.38,WNW,286,2.0,4.0,97,0.00,,,0.00,0.0,meteohub,2013-01-18 05:52:00,
2013-01-17 21:57:00,29.3,28.6,30.38,WNW,286,3.0,4.0,97,0.00,,,0.00,0.0,meteohub,2013-01-18 05:57:00,
2013-01-17 22:02:00,29.1,28.4,30.38,WNW,286,0.0,4.0,97,0.00,,,0.00,0.0,meteohub,2013-01-18 06:02:00,
2013-01-17 22:07:00,29.1,28.4,30.38,WNW,286,1.0,4.0,97,0.00,,,0.00,0.0,meteohub,2013-01-18 06:07:00,
2013-01-17 22:12:00,29.1,28.4,30.37,WNW,286,2.0,4.0,97,0.00,,,0.00,0.0,meteohub,2013-01-18 06:12:00,
2013-01-17 22:17:00,28.9,28.2,30.37,WNW,285,3.0,4.0,97,0.00,,,0.00,0.0,meteohub,2013-01-18 06:17:00,
2013-01-17 22:22:00,28.8,28.0,30.37,WNW,286,1.0,4.0,97,0.00,,,0.00,0.0,meteohub,2013-01-18 06:22:00,
2013-01-17 22:27:00,28.8,28.0,30.37,WNW,286,3.0,4.0,97,0.00,,,0.00,0.0,meteohub,2013-01-18 06:27:00,
2013-01-17 22:32:00,28.8,28.0,30.37,WNW,286,3.0,4.0,97,0.00,,,0.00,0.0,meteohub,2013-01-18 06:32:00,
2013-01-17 22:38:00,28.8,28.0,30.37,WNW,285,2.0,4.0,97,0.00,,,0.00,0.0,meteohub,2013-01-18 06:38:00,
2013-01-17 22:43:00,28.8,28.0,30.37,WNW,284,1.0,4.0,97,0.00,,,0.00,0.0,meteohub,2013-01-18 06:43:00,
2013-01-17 22:48:00,28.8,28.0,30.37,WNW,285,0.0,4.0,97,0.00,,,0.00,0.0,meteohub,2013-01-18 06:48:00,
2013-01-17 22:53:00,28.8,28.0,30.37,WNW,284,3.0,4.0,97,0.00,,,0.00,0.0,meteohub,2013-01-18 06:53:00,
2013-01-17 22:58:00,28.6,27.9,30.37,WNW,284,0.0,5.0,97,0.00,,,0.00,0.0,meteohub,2013-01-18 06:58:00,
2013-01-17 23:03:00,28.6,27.9,30.37,WNW,284,3.0,5.0,97,0.00,,,0.00,0.0,meteohub,2013-01-18 07:03:00,
2013-01-17 23:08:00,28.8,28.0,30.37,WNW,284,0.0,5.0,97,0.00,,,0.00,0.0,meteohub,2013-01-18 07:08:00,
2013-01-17 23:13:00,28.6,27.9,30.37,WNW,284,2.0,4.0,97,0.00,,,0.00,0.0,meteohub,2013-01-18 07:13:00,
2013-01-17 23:18:00,28.6,27.9,30.36,WNW,284,3.0,3.0,97,0.00,,,0.00,0.0,meteohub,2013-01-18 07:18:00,
2013-01-17 23:23:00,28.6,27.9,30.36,WNW,284,3.0,4.0,97,0.00,,,0.00,0.0,meteohub,2013-01-18 07:23:00,
2013-01-17 23:28:00,28.4,27.7,30.36,WNW,284,2.0,4.0,97,0.00,,,0.00,0.0,meteohub,2013-01-18 07:28:00,
2013-01-17 23:34:00,28.4,27.7,30.36,WNW,284,0.0,4.0,97,0.00,,,0.00,0.0,meteohub,2013-01-18 07:34:00,
2013-01-17 23:39:00,28.4,27.7,30.36,WNW,284,0.0,4.0,97,0.00,,,0.00,0.0,meteohub,2013-01-18 07:39:00,
2013-01-17 23:44:00,28.4,27.7,30.36,WNW,284,2.0,3.0,97,0.00,,,0.00,0.0,meteohub,2013-01-18 07:44:00,
2013-01-17 23:49:00,28.2,27.5,30.36,WNW,284,3.0,3.0,97,0.00,,,0.00,0.0,meteohub,2013-01-18 07:49:00,
2013-01-17 23:54:00,28.4,27.7,30.36,WNW,284,3.0,4.0,97,0.00,,,0.00,0.0,meteohub,2013-01-18 07:54:00,
2013-01-17 23:59:00,28.2,27.5,30.36,WNW,284,3.0,4.0,97,0.00,,,0.00,0.0,meteohub,2013-01-18 07:59:00,